This demonstration page uses our WeatherBlox Daily Observations layout. Learn more.

39.01783, -85.05884

Hourly Observations for June 13, 2019

Temp ( °F °C ) Dew Point ( °F °C ) Humidity (%) Winds ( mph kmh ) Pressure ( in mb ) Visibility ( mi km ) Precip ( " mm )
12:52 am 00:52 Partly Cloudy 63 17.2 60 15.6 90 90 S 9 15 29.74 1007 8 12.874752 0 0
1:52 am 01:52 Mostly Cloudy 63 17.2 59 15 87 87 SW 8 13 29.74 1007 10 16.09344 0 0
2:52 am 02:52 Cloudy with Light Rain 62 16.7 56 13.3 80 80 SW 5 7 29.74 1007 8 12.874752 0.001 0.001
3:52 am 03:52 Cloudy 61 16.1 56 13.3 84 84 SW 5 7 29.71 1006 10 16.09344 0.001 0.001
4:52 am 04:52 Cloudy 60 15.6 55 12.8 84 84 SW 5 7 29.71 1006 10 16.09344 0 0
5:52 am 05:52 Mostly Cloudy 59 15 52 11.1 78 78 WSW 8 13 29.71 1006 10 16.09344 0 0
6:25 am 06:25 Mostly Cloudy 59 15 52 11.1 78 78 WSW 8 13 29.77 1008 10 16.09344 0 0
6:38 am 06:38 Mostly Cloudy 59 15 52 11.1 78 78 SW 8 13 29.77 1008 10 16.09344 0 0
6:52 am 06:52 Mostly Cloudy 58 14.4 52 11.1 81 81 SW 9 15 29.74 1007 10 16.09344 0 0
7:20 am 07:20 Cloudy 59 15 53 11.7 81 81 SW 8 13 29.77 1008 10 16.09344 0 0
7:52 am 07:52 Cloudy 59 15 53 11.7 81 81 SW 10 17 29.74 1007 10 16.09344 0 0
8:40 am 08:40 Cloudy with Rain 59 15 54 12.2 83 83 SW 10 17 29.77 1008 1.75 2.816352 0.01 0.254
8:44 am 08:44 Cloudy with Rain 58 14.4 55 12.8 90 90 SSW 10 17 29.77 1008 2 3.218688 0.03 0.762
8:52 am 08:52 Cloudy with Light Rain 58 14.4 55 12.8 90 90 SSW 9 15 29.74 1007 2 3.218688 0.05 1.27
9:22 am 09:22 Cloudy 59 15 54 12.2 83 83 W 17 28 29.8 1009 10 16.09344 0.001 0.001
9:52 am 09:52 Cloudy 58 14.4 52 11.1 81 81 W 22 35 29.77 1008 10 16.09344 0.001 0.001
10:37 am 10:37 Cloudy 58 14.4 51 10.6 78 78 W 12 19 29.83 1010 10 16.09344 0 0
10:52 am 10:52 Mostly Cloudy 60 15.6 51 10.6 72 72 W 17 28 29.8 1009 10 16.09344 0 0
11:52 am 11:52 Cloudy 61 16.1 48 8.9 63 63 W 25 41 29.83 1010 10 16.09344 0 0
12:52 pm 12:52 Cloudy 63 17.2 47 8.3 56 56 W 23 37 29.83 1010 10 16.09344 0 0
1:52 pm 13:52 Cloudy 61 16.1 47 8.3 60 60 W 23 37 29.85 1011 10 16.09344 0 0
2:52 pm 14:52 Mostly Cloudy 67 19.4 49 9.4 53 53 W 26 43 29.85 1011 10 16.09344 0 0
3:52 pm 15:52 Partly Cloudy 69 20.6 45 7.2 42 42 W 26 43 29.85 1011 10 16.09344 0 0
4:52 pm 16:52 Mostly Cloudy 68 20 42 5.6 39 39 W 31 50 29.88 1012 10 16.09344 0 0
5:30 pm 17:30 Cloudy 59 15 48 8.9 67 67 NW 18 30 29.97 1015 10 16.09344 0.001 0.001
5:52 pm 17:52 Mostly Cloudy 61 16.1 48 8.9 63 63 NW 17 28 29.94 1014 10 16.09344 0.001 0.001
6:52 pm 18:52 Mostly Cloudy 63 17.2 47 8.3 56 56 NW 18 30 29.94 1014 10 16.09344 0.001 0.001
7:52 pm 19:52 Partly Cloudy 62 16.7 45 7.2 54 54 NW 14 22 29.97 1015 10 16.09344 0 0
8:52 pm 20:52 Mostly Cloudy 59 15 46 7.8 62 62 W 14 22 30 1016 10 16.09344 0 0
9:52 pm 21:52 Partly Cloudy 55 12.8 45 7.2 69 69 W 5 7 30.03 1017 10 16.09344 0 0
10:52 pm 22:52 Mostly Clear 54 12.2 46 7.8 75 75 WSW 5 7 30.06 1018 10 16.09344 0 0
11:52 pm 23:52 Mostly Clear 53 11.7 46 7.8 77 77 WSW 6 9 30.06 1018 10 16.09344 0 0

Powered by AerisWeather